Date,TemperatureHighF,TemperatureAvgF,TemperatureLowF,DewpointHighF,DewpointAvgF,DewpointLowF,HumidityHigh,HumidityAvg,HumidityLow,PressureMaxIn,PressureMinIn,WindSpeedMaxMPH,WindSpeedAvgMPH,GustSpeedMaxMPH,PrecipitationSumIn
2013-1-1,18,17,14,-100,-100,-100,0,0,100,0.00,40.00,0,-999,0,0.00
2013-1-2,32,20,10,-100,-100,-100,0,0,100,0.00,40.00,0,-999,0,0.00
2013-1-3,31,26,15,-100,-100,-100,0,0,100,0.00,40.00,0,-999,0,0.00
2013-1-4,31,21,14,-100,-100,-100,0,0,100,0.00,40.00,0,-999,0,0.00
2013-1-5,31,22,18,-100,-100,-100,0,0,100,0.00,40.00,0,-999,0,0.00
2013-1-6,32,23,11,-100,-100,-100,0,0,100,0.00,40.00,0,-999,0,0.00
2013-1-7,31,27,23,-100,-100,-100,0,0,100,0.00,40.00,0,-999,0,0.00
2013-1-8,32,26,15,-100,-100,-100,0,0,100,0.00,40.00,0,-999,0,0.00
2013-1-9,37,33,29,-100,-100,-100,0,0,100,0.00,40.00,0,-999,0,0.00
2013-1-10,37,33,28,-100,-100,-100,0,0,100,0.00,40.00,0,-999,0,0.00
2013-1-11,46,38,30,-100,-100,-100,0,0,100,0.00,40.00,0,-999,0,0.00
2013-1-12,30,19,15,-100,-100,-100,0,0,100,0.00,40.00,0,-999,0,0.00
2013-1-13,18,11,5,-100,-100,-100,0,0,100,0.00,40.00,0,-999,0,0.00
2013-1-14,19,14,9,-100,-100,-100,0,0,100,0.00,40.00,0,-999,0,0.00
2013-1-15,25,20,15,-100,-100,-100,0,0,100,0.00,40.00,0,-999,0,0.00
2013-1-16,49,32,19,-100,-100,-100,0,0,100,0.00,40.00,0,-999,0,0.00
2013-1-17,32,27,25,-100,-100,-100,0,0,100,0.00,40.00,0,-999,0,0.00
2013-1-18,43,34,26,-100,-100,-100,0,0,100,0.00,40.00,0,-999,0,0.00
2013-1-19,40,35,27,-100,-100,-100,0,0,100,0.00,40.00,0,-999,0,0.00
2013-1-20,40,16,12,-100,-100,-100,0,0,100,0.00,40.00,0,-999,0,0.00
2013-1-21,12,9,3,-100,-100,-100,0,0,100,0.00,40.00,0,-999,0,0.00
2013-1-22,12,10,9,-100,-100,-100,0,0,100,0.00,40.00,0,-999,0,0.00
2013-1-23,25,16,10,-100,-100,-100,0,0,100,0.00,40.00,0,-999,0,0.00
2013-1-24,23,5,2,-100,-100,-100,0,0,100,0.00,40.00,0,-999,0,0.00
2013-1-25,39,28,14,-100,-100,-100,0,0,100,0.00,40.00,0,-999,0,0.00
2013-1-26,45,28,17,-100,-100,-100,0,0,100,0.00,40.00,0,-999,0,0.00
2013-1-27,45,36,35,-100,-100,-100,0,0,100,0.00,40.00,0,-999,0,0.00
2013-1-28,36,34,32,-100,-100,-100,0,0,100,0.00,40.00,0,-999,0,0.00
2013-1-29,32,31,30,-100,-100,-100,0,0,100,0.00,40.00,0,-999,0,0.00
2013-1-30,32,22,19,-100,-100,-100,0,0,100,0.00,40.00,0,-999,0,0.00
2013-1-31,6,5,4,-100,-100,-100,0,0,100,0.00,40.00,0,-999,0,0.00
2013-2-1,26,14,-2,-100,-100,-100,0,0,100,0.00,40.00,0,-999,0,0.00
2013-2-2,36,24,22,-100,-100,-100,0,0,100,0.00,40.00,0,-999,0,0.00
2013-2-3,40,32,24,-100,-100,-100,0,0,100,0.00,40.00,0,-999,0,0.00
2013-2-4,36,25,20,-100,-100,-100,0,0,100,0.00,40.00,0,-999,0,0.00
2013-2-5,40,33,25,-100,-100,-100,0,0,100,0.00,40.00,0,-999,0,0.00
2013-2-6,40,34,28,-100,-100,-100,0,0,100,0.00,40.00,0,-999,0,0.00
2013-2-7,40,33,29,-100,-100,-100,0,0,100,0.00,40.00,0,-999,0,0.00
2013-2-8,29,26,24,-100,-100,-100,0,0,100,0.00,40.00,0,-999,0,0.00
2013-2-9,42,35,27,-100,-100,-100,0,0,100,0.00,40.00,0,-999,0,0.00
2013-2-10,41,36,29,-100,-100,-100,0,0,100,0.00,40.00,0,-999,0,0.00
2013-2-11,29,27,25,-100,-100,-100,0,0,100,0.00,40.00,0,-999,0,0.00
2013-2-12,47,29,21,-100,-100,-100,0,0,100,0.00,40.00,0,-999,0,0.00
2013-2-13,53,37,27,-100,-100,-100,0,0,100,0.00,40.00,0,-999,0,0.00
2013-2-14,40,38,24,-100,-100,-100,0,0,100,0.00,40.00,0,-999,0,0.00
2013-2-15,25,21,14,-100,-100,-100,0,0,100,0.00,40.00,0,-999,0,0.00
2013-2-16,31,23,14,-100,-100,-100,0,0,100,0.00,40.00,0,-999,0,0.00
2013-2-17,47,30,23,-100,-100,-100,0,0,100,0.00,40.00,0,-999,0,0.00
2013-2-18,41,38,34,-100,-100,-100,0,0,100,0.00,40.00,0,-999,0,0.00
2013-2-19,18,10,8,-100,-100,-100,0,0,100,0.00,40.00,0,-999,0,0.00
2013-2-20,21,8,3,-100,-100,-100,0,0,100,0.00,40.00,0,-999,0,0.00
2013-2-21,21,19,18,-100,-100,-100,0,0,100,0.00,40.00,0,-999,0,0.00
2013-2-22,20,18,16,-100,-100,-100,0,0,100,0.00,40.00,0,-999,0,0.00
2013-2-23,29,16,7,-100,-100,-100,0,0,100,0.00,40.00,0,-999,0,0.00
2013-2-24,32,25,18,-100,-100,-100,0,0,100,0.00,40.00,0,-999,0,0.00
2013-2-25,27,24,22,-100,-100,-100,0,0,100,0.00,40.00,0,-999,0,0.00
2013-2-26,28,24,21,-100,-100,-100,0,0,100,0.00,40.00,0,-999,0,0.00
2013-2-27,29,26,23,-100,-100,-100,0,0,100,0.00,40.00,0,-999,0,0.00
2013-2-28,29,25,23,-100,-100,-100,0,0,100,0.00,40.00,0,-999,0,0.00
2013-3-1,25,23,21,-100,-100,-100,0,0,100,0.00,40.00,0,-999,0,0.00
2013-3-2,30,22,18,-100,-100,-100,0,0,100,0.00,40.00,0,-999,0,0.00
2013-3-3,37,32,27,-100,-100,-100,0,0,100,0.00,40.00,0,-999,0,0.00
2013-3-4,37,33,30,-100,-100,-100,0,0,100,0.00,40.00,0,-999,0,0.00
2013-3-5,35,26,22,-100,-100,-100,0,0,100,0.00,40.00,0,-999,0,0.00
2013-3-6,36,26,18,-100,-100,-100,0,0,100,0.00,40.00,0,-999,0,0.00
2013-3-7,50,32,22,-100,-100,-100,0,0,100,0.00,40.00,0,-999,0,0.00
2013-3-8,51,38,26,-100,-100,-100,0,0,100,0.00,40.00,0,-999,0,0.00
2013-3-9,54,41,33,-100,-100,-100,0,0,100,0.00,40.00,0,-999,0,0.00
2013-3-10,32,26,22,-100,-100,-100,0,0,100,0.00,40.00,0,-999,0,0.00
2013-3-11,31,21,18,-100,-100,-100,0,0,100,0.00,40.00,0,-999,0,0.00
2013-3-12,30,25,15,-100,-100,-100,0,0,100,0.00,40.00,0,-999,0,0.00
2013-3-13,35,23,17,-100,-100,-100,0,0,100,0.00,40.00,0,-999,0,0.00
2013-3-14,53,39,30,-100,-100,-100,0,0,100,0.00,40.00,0,-999,0,0.00
2013-3-15,53,42,34,-100,-100,-100,0,0,100,0.00,40.00,0,-999,0,0.00
2013-3-16,38,30,26,-100,-100,-100,0,0,100,0.00,40.00,0,-999,0,0.00
2013-3-17,42,30,22,-100,-100,-100,0,0,100,0.00,40.00,0,-999,0,0.00
2013-3-18,40,32,29,-100,-100,-100,0,0,100,0.00,40.00,0,-999,0,0.00
2013-3-19,48,34,18,-100,-100,-100,0,0,100,0.00,40.00,0,-999,0,0.00
2013-3-20,48,24,15,-100,-100,-100,0,0,100,0.00,40.00,0,-999,0,0.00
2013-3-21,29,23,20,-100,-100,-100,0,0,100,0.00,40.00,0,-999,0,0.00
2013-3-22,31,28,24,-100,-100,-100,0,0,100,0.00,40.00,0,-999,0,0.00
2013-3-23,32,29,27,-100,-100,-100,0,0,100,0.00,40.00,0,-999,0,0.00
2013-3-24,27,23,21,-100,-100,-100,0,0,100,0.00,40.00,0,-999,0,0.00
2013-3-25,26,24,21,-100,-100,-100,0,0,100,0.00,40.00,0,-999,0,0.00
2013-3-26,40,26,19,-100,-100,-100,0,0,100,0.00,40.00,0,-999,0,0.00
2013-3-27,49,36,26,-100,-100,-100,0,0,100,0.00,40.00,0,-999,0,0.00
2013-3-28,57,41,25,-100,-100,-100,0,0,100,0.00,40.00,0,-999,0,0.00
2013-3-29,66,50,32,-100,-100,-100,0,0,100,0.00,40.00,0,-999,0,0.00
2013-3-30,61,53,46,-100,-100,-100,0,0,100,0.00,40.00,0,-999,0,0.00
2013-3-31,53,45,34,-100,-100,-100,0,0,100,0.00,40.00,0,-999,0,0.00
2013-4-1,36,30,19,-100,-100,-100,0,0,100,0.00,40.00,0,-999,0,0.00
2013-4-2,49,35,25,-100,-100,-100,0,0,100,0.00,40.00,0,-999,0,0.00
2013-4-3,55,43,29,-100,-100,-100,0,0,100,0.00,40.00,0,-999,0,0.00
2013-4-4,57,46,32,-100,-100,-100,0,0,100,0.00,40.00,0,-999,0,0.00
2013-4-5,65,47,30,-100,-100,-100,0,0,100,0.00,40.00,0,-999,0,0.00
2013-4-6,60,57,47,-100,-100,-100,0,0,100,0.00,40.00,0,-999,0,0.00
2013-4-7,69,52,39,-100,-100,-100,0,0,100,0.00,40.00,0,-999,0,0.00
2013-4-8,63,54,47,-100,-100,-100,0,0,100,0.00,40.00,0,-999,0,0.00
2013-4-9,58,45,31,-100,-100,-100,0,0,100,0.00,40.00,0,-999,0,0.00
2013-4-10,33,32,30,-100,-100,-100,0,0,100,0.00,40.00,0,-999,0,0.00
2013-4-11,32,30,27,-100,-100,-100,0,0,100,0.00,40.00,0,-999,0,0.00
2013-4-12,36,32,29,-100,-100,-100,0,0,100,0.00,40.00,0,-999,0,0.00
2013-4-13,47,40,30,-100,-100,-100,0,0,100,0.00,40.00,0,-999,0,0.00
2013-4-14,56,47,40,-100,-100,-100,0,0,100,0.00,40.00,0,-999,0,0.00
2013-4-15,43,38,32,-100,-100,-100,0,0,100,0.00,40.00,0,-999,0,0.00
2013-4-16,47,38,32,-100,-100,-100,0,0,100,0.00,40.00,0,-999,0,0.00
2013-4-17,43,38,34,-100,-100,-100,0,0,100,0.00,40.00,0,-999,0,0.00
2013-4-18,34,31,29,-100,-100,-100,0,0,100,0.00,40.00,0,-999,0,0.00
2013-4-19,42,32,29,-100,-100,-100,0,0,100,0.00,40.00,0,-999,0,0.00
2013-4-20,41,32,25,-100,-100,-100,0,0,100,0.00,40.00,0,-999,0,0.00
2013-4-21,52,47,41,-100,-100,-100,0,0,100,0.00,40.00,0,-999,0,0.00
2013-4-22,50,40,32,-100,-100,-100,0,0,100,0.00,40.00,0,-999,0,0.00
2013-4-23,32,29,27,-100,-100,-100,0,0,100,0.00,40.00,0,-999,0,0.00
2013-4-24,47,38,26,-100,-100,-100,0,0,100,0.00,40.00,0,-999,0,0.00
2013-4-25,68,52,35,-100,-100,-100,0,0,100,0.00,40.00,0,-999,0,0.00
2013-4-26,71,61,49,-100,-100,-100,0,0,100,0.00,40.00,0,-999,0,0.00
2013-4-27,71,50,41,-100,-100,-100,0,0,100,0.00,40.00,0,-999,0,0.00
2013-4-28,80,63,46,-100,-100,-100,0,0,100,0.00,40.00,0,-999,0,0.00
2013-4-29,80,61,55,-100,-100,-100,0,0,100,0.00,40.00,0,-999,0,0.00
2013-4-30,70,66,60,-100,-100,-100,0,0,100,0.00,40.00,0,-999,0,0.00
2013-5-1,63,40,29,-100,-100,-100,0,0,100,0.00,40.00,0,-999,0,0.00
2013-5-2,47,37,29,-100,-100,-100,0,0,100,0.00,40.00,0,-999,0,0.00
2013-5-3,44,38,29,-100,-100,-100,0,0,100,0.00,40.00,0,-999,0,0.00
2013-5-4,41,37,33,-100,-100,-100,0,0,100,0.00,40.00,0,-999,0,0.00
2013-5-5,51,43,38,-100,-100,-100,0,0,100,0.00,40.00,0,-999,0,0.00
2013-5-6,66,52,43,-100,-100,-100,0,0,100,0.00,40.00,0,-999,0,0.00
2013-5-7,65,55,42,-100,-100,-100,0,0,100,0.00,40.00,0,-999,0,0.00
2013-5-8,62,42,-51,-100,-100,-100,0,0,100,0.00,40.00,0,-999,0,0.00
2013-5-9,62,54,51,-100,-100,-100,0,0,100,0.00,40.00,0,-999,0,0.00
2013-5-10,65,56,47,-100,-100,-100,0,0,100,0.00,40.00,0,-999,0,0.00
2013-5-11,65,53,44,-100,-100,-100,0,0,100,0.00,40.00,0,-999,0,0.00
2013-5-12,64,51,35,-100,-100,-100,0,0,100,0.00,40.00,0,-999,0,0.00
2013-5-13,83,66,51,-100,-100,-100,0,0,100,0.00,40.00,0,-999,0,0.00
2013-5-14,85,74,67,-100,-100,-100,0,0,100,0.00,40.00,0,-999,0,0.00
2013-5-15,83,72,60,-100,-100,-100,0,0,100,0.00,40.00,0,-999,0,0.00
2013-5-16,74,66,59,-100,-100,-100,0,0,100,0.00,40.00,0,-999,0,0.00
2013-5-17,83,72,65,-100,-100,-100,0,0,100,0.00,40.00,0,-999,0,0.00
2013-5-18,74,71,60,-100,-100,-100,0,0,100,0.00,40.00,0,-999,0,0.00
2013-5-19,75,66,60,-100,-100,-100,0,0,100,0.00,40.00,0,-999,0,0.00
2013-5-20,74,64,56,-100,-100,-100,0,0,100,0.00,40.00,0,-999,0,0.00
2013-5-21,62,58,54,-100,-100,-100,0,0,100,0.00,40.00,0,-999,0,0.00
2013-5-22,57,52,49,-100,-100,-100,0,0,100,0.00,40.00,0,-999,0,0.00
2013-5-23,69,57,49,-100,-100,-100,0,0,100,0.00,40.00,0,-999,0,0.00
2013-5-24,70,60,51,-100,-100,-100,0,0,100,0.00,40.00,0,-999,0,0.00
2013-5-25,76,65,56,-100,-100,-100,0,0,100,0.00,40.00,0,-999,0,0.00
2013-5-26,69,64,62,-100,-100,-100,0,0,100,0.00,40.00,0,-999,0,0.00
2013-5-27,73,65,58,-100,-100,-100,0,0,100,0.00,40.00,0,-999,0,0.00
2013-5-28,75,67,59,-100,-100,-100,0,0,100,0.00,40.00,0,-999,0,0.00
2013-5-29,73,69,62,-100,-100,-100,0,0,100,0.00,40.00,0,-999,0,0.00
2013-5-30,73,65,60,-100,-100,-100,0,0,100,0.00,40.00,0,-999,0,0.00
2013-5-31,78,67,56,-100,-100,-100,0,0,100,0.00,40.00,0,-999,0,0.00
2013-6-1,68,57,55,-100,-100,-100,0,0,100,0.00,40.00,0,-999,0,0.00
2013-6-2,65,55,50,-100,-100,-100,0,0,100,0.00,40.00,0,-999,0,0.00
2013-6-3,69,61,51,-100,-100,-100,0,0,100,0.00,40.00,0,-999,0,0.00
2013-6-4,71,64,58,-100,-100,-100,0,0,100,0.00,40.00,0,-999,0,0.00
2013-6-5,69,62,56,-100,-100,-100,0,0,100,0.00,40.00,0,-999,0,0.00
2013-6-6,67,62,55,-100,-100,-100,0,0,100,0.00,40.00,0,-999,0,0.00
2013-6-7,72,60,54,-100,-100,-100,0,0,100,0.00,40.00,0,-999,0,0.00
2013-6-8,66,60,58,-100,-100,-100,0,0,100,0.00,40.00,0,-999,0,0.00
2013-6-9,66,62,58,-100,-100,-100,0,0,100,0.00,40.00,0,-999,0,0.00
2013-6-10,76,66,53,-100,-100,-100,0,0,100,0.00,40.00,0,-999,0,0.00
2013-6-11,85,72,65,-100,-100,-100,0,0,100,0.00,40.00,0,-999,0,0.00
2013-6-12,85,76,68,-100,-100,-100,0,0,100,0.00,40.00,0,-999,0,0.00
2013-6-13,73,64,56,-100,-100,-100,0,0,100,0.00,40.00,0,-999,0,0.00
2013-6-14,87,71,62,-100,-100,-100,0,0,100,0.00,40.00,0,-999,0,0.00
2013-6-15,84,71,63,-100,-100,-100,0,0,100,0.00,40.00,0,-999,0,0.00
2013-6-16,83,73,64,-100,-100,-100,0,0,100,0.00,40.00,0,-999,0,0.00
2013-6-17,85,75,62,-100,-100,-100,0,0,100,0.00,40.00,0,-999,0,0.00
2013-6-18,82,72,65,-100,-100,-100,0,0,100,0.00,40.00,0,-999,0,0.00
2013-6-19,83,72,64,-100,-100,-100,0,0,100,0.00,40.00,0,-999,0,0.00
2013-6-20,81,74,69,-100,-100,-100,0,0,100,0.00,40.00,0,-999,0,0.00
2013-6-22,87,82,72,-100,-100,-100,0,0,100,0.00,40.00,0,-999,0,0.00
2013-6-23,79,72,64,-100,-100,-100,0,0,100,0.00,40.00,0,-999,0,0.00
2013-6-24,77,74,71,-100,-100,-100,0,0,100,0.00,40.00,0,-999,0,0.00
2013-6-25,83,77,70,-100,-100,-100,0,0,100,0.00,40.00,0,-999,0,0.00
2013-6-26,91,80,73,-100,-100,-100,0,0,100,0.00,40.00,0,-999,0,0.00
2013-6-27,82,72,65,-100,-100,-100,0,0,100,0.00,40.00,0,-999,0,0.00
2013-6-28,83,75,69,-100,-100,-100,0,0,100,0.00,40.00,0,-999,0,0.00
2013-6-29,76,71,67,-100,-100,-100,0,0,100,0.00,40.00,0,-999,0,0.00
2013-6-30,76,66,55,-100,-100,-100,0,0,100,0.00,40.00,0,-999,0,0.00
2013-7-1,79,64,53,-100,-100,-100,0,0,100,0.00,40.00,0,-999,0,0.00
2013-7-2,83,69,59,-100,-100,-100,0,0,100,0.00,40.00,0,-999,0,0.00
2013-7-3,86,74,58,-100,-100,-100,0,0,100,0.00,40.00,0,-999,0,0.00
2013-7-4,83,75,62,-100,-100,-100,0,0,100,0.00,40.00,0,-999,0,0.00
2013-7-5,87,76,69,-100,-100,-100,0,0,100,0.00,40.00,0,-999,0,0.00
2013-7-6,84,75,70,-100,-100,-100,0,0,100,0.00,40.00,0,-999,0,0.00
2013-7-7,94,81,72,-100,-100,-100,0,0,100,0.00,40.00,0,-999,0,0.00
2013-7-8,88,78,72,-100,-100,-100,0,0,100,0.00,40.00,0,-999,0,0.00
2013-7-9,94,82,73,-100,-100,-100,0,0,100,0.00,40.00,0,-999,0,0.00
2013-7-10,80,75,65,-100,-100,-100,0,0,100,0.00,40.00,0,-999,0,0.00
2013-7-11,83,74,64,-100,-100,-100,0,0,100,0.00,40.00,0,-999,0,0.00
2013-7-12,86,74,69,-100,-100,-100,0,0,100,0.00,40.00,0,-999,0,0.00
2013-7-13,87,79,74,-100,-100,-100,0,0,100,0.00,40.00,0,-999,0,0.00
2013-7-14,82,75,70,-100,-100,-100,0,0,100,0.00,40.00,0,-999,0,0.00
2013-7-15,86,73,62,-100,-100,-100,0,0,100,0.00,40.00,0,-999,0,0.00
2013-7-16,87,78,69,-100,-100,-100,0,0,100,0.00,40.00,0,-999,0,0.00
2013-7-17,90,82,71,-100,-100,-100,0,0,100,0.00,40.00,0,-999,0,0.00
2013-7-18,92,82,72,-100,-100,-100,0,0,100,0.00,40.00,0,-999,0,0.00
2013-7-19,91,81,74,-100,-100,-100,0,0,100,0.00,40.00,0,-999,0,0.00
2013-7-20,85,74,65,-100,-100,-100,0,0,100,0.00,40.00,0,-999,0,0.00
2013-7-21,91,80,69,-100,-100,-100,0,0,100,0.00,40.00,0,-999,0,0.00
2013-7-22,94,79,69,-100,-100,-100,0,0,100,0.00,40.00,0,-999,0,0.00
2013-7-23,77,71,63,-100,-100,-100,0,0,100,0.00,40.00,0,-999,0,0.00
2013-7-24,81,71,59,-100,-100,-100,0,0,100,0.00,40.00,0,-999,0,0.00
2013-7-25,83,74,68,-100,-100,-100,0,0,100,0.00,40.00,0,-999,0,0.00
2013-7-26,72,67,62,-100,-100,-100,0,0,100,0.00,40.00,0,-999,0,0.00
2013-7-27,69,62,51,-100,-100,-100,0,0,100,0.00,40.00,0,-999,0,0.00
2013-7-28,74,63,45,-100,-100,-100,0,0,100,0.00,40.00,0,-999,0,0.00
2013-7-29,66,64,58,-100,-100,-100,0,0,100,0.00,40.00,0,-999,0,0.00
2013-7-30,73,67,63,-100,-100,-100,0,0,100,0.00,40.00,0,-999,0,0.00
2013-7-31,86,73,60,-100,-100,-100,0,0,100,0.00,40.00,0,-999,0,0.00
2013-8-1,83,71,62,-100,-100,-100,0,0,100,0.00,40.00,0,-999,0,0.00
2013-8-2,76,71,64,-100,-100,-100,0,0,100,0.00,40.00,0,-999,0,0.00
2013-8-3,73,67,61,-100,-100,-100,0,0,100,0.00,40.00,0,-999,0,0.00
2013-8-4,76,67,58,-100,-100,-100,0,0,100,0.00,40.00,0,-999,0,0.00
2013-8-5,83,73,67,-100,-100,-100,0,0,100,0.00,40.00,0,-999,0,0.00
2013-8-6,88,76,66,-100,-100,-100,0,0,100,0.00,40.00,0,-999,0,0.00
2013-8-7,77,72,63,-100,-100,-100,0,0,100,0.00,40.00,0,-999,0,0.00
2013-8-8,75,69,63,-100,-100,-100,0,0,100,0.00,40.00,0,-999,0,0.00
2013-8-9,76,69,62,-100,-100,-100,0,0,100,0.00,40.00,0,-999,0,0.00
2013-8-10,82,70,57,-100,-100,-100,0,0,100,0.00,40.00,0,-999,0,0.00
2013-8-11,87,71,64,-100,-100,-100,0,0,100,0.00,40.00,0,-999,0,0.00
2013-8-12,80,71,65,-100,-100,-100,0,0,100,0.00,40.00,0,-999,0,0.00
2013-8-13,77,67,60,-100,-100,-100,0,0,100,0.00,40.00,0,-999,0,0.00
2013-8-14,73,64,54,-100,-100,-100,0,0,100,0.00,40.00,0,-999,0,0.00
2013-8-15,65,62,59,-100,-100,-100,0,0,100,0.00,40.00,0,-999,0,0.00
2013-8-16,72,65,59,-100,-100,-100,0,0,100,0.00,40.00,0,-999,0,0.00
2013-8-17,76,67,58,-100,-100,-100,0,0,100,0.00,40.00,0,-999,0,0.00
2013-8-18,80,65,52,-100,-100,-100,0,0,100,0.00,40.00,0,-999,0,0.00
2013-8-19,84,74,64,-100,-100,-100,0,0,100,0.00,40.00,0,-999,0,0.00
2013-8-20,89,78,69,-100,-100,-100,0,0,100,0.00,40.00,0,-999,0,0.00
2013-8-21,90,78,71,-100,-100,-100,0,0,100,0.00,40.00,0,-999,0,0.00
2013-8-22,79,76,69,-100,-100,-100,0,0,100,0.00,40.00,0,-999,0,0.00
2013-8-23,88,76,68,-100,-100,-100,0,0,100,0.00,40.00,0,-999,0,0.00
2013-8-24,91,81,74,-100,-100,-100,0,0,100,0.00,40.00,0,-999,0,0.00
2013-8-25,94,82,73,-100,-100,-100,0,0,100,0.00,40.00,0,-999,0,0.00
2013-8-26,91,82,74,-100,-100,-100,0,0,100,0.00,40.00,0,-999,0,0.00
2013-8-27,92,79,76,-100,-100,-100,0,0,100,0.00,40.00,0,-999,0,0.00
2013-8-28,95,89,80,-100,-100,-100,0,0,100,0.00,40.00,0,-999,0,0.00
2013-8-29,94,81,68,-100,-100,-100,0,0,100,0.00,40.00,0,-999,0,0.00
2013-8-30,88,79,75,-100,-100,-100,0,0,100,0.00,40.00,0,-999,0,0.00
2013-8-31,91,75,69,-100,-100,-100,0,0,100,0.00,40.00,0,-999,0,0.00
2013-9-1,80,75,67,-100,-100,-100,0,0,100,0.00,40.00,0,-999,0,0.00
2013-9-2,75,66,55,-100,-100,-100,0,0,100,0.00,40.00,0,-999,0,0.00
2013-9-3,83,72,55,-100,-100,-100,0,0,100,0.00,40.00,0,-999,0,0.00
2013-9-4,83,74,67,-100,-100,-100,0,0,100,0.00,40.00,0,-999,0,0.00
2013-9-5,82,74,66,-100,-100,-100,0,0,100,0.00,40.00,0,-999,0,0.00
2013-9-6,94,78,68,-100,-100,-100,0,0,100,0.00,40.00,0,-999,0,0.00
2013-9-7,83,77,72,-100,-100,-100,0,0,100,0.00,40.00,0,-999,0,0.00
2013-9-8,92,75,65,-100,-100,-100,0,0,100,0.00,40.00,0,-999,0,0.00
2013-9-9,98,84,72,-100,-100,-100,0,0,100,0.00,40.00,0,-999,0,0.00
2013-9-10,92,80,65,-100,-100,-100,0,0,100,0.00,40.00,0,-999,0,0.00
2013-9-11,75,70,69,-100,-100,-100,0,0,100,0.00,40.00,0,-999,0,0.00
2013-9-12,75,71,59,-100,-100,-100,0,0,100,0.00,40.00,0,-999,0,0.00
2013-9-13,71,62,54,-100,-100,-100,0,0,100,0.00,40.00,0,-999,0,0.00
2013-9-14,74,63,54,-100,-100,-100,0,0,100,0.00,40.00,0,-999,0,0.00
2013-9-15,71,64,58,-100,-100,-100,0,0,100,0.00,40.00,0,-999,0,0.00
2013-9-16,65,60,55,-100,-100,-100,0,0,100,0.00,40.00,0,-999,0,0.00
2013-9-17,69,60,56,-100,-100,-100,0,0,100,0.00,40.00,0,-999,0,0.00
2013-9-18,80,69,65,-100,-100,-100,0,0,100,0.00,40.00,0,-999,0,0.00
2013-9-19,80,71,62,-100,-100,-100,0,0,100,0.00,40.00,0,-999,0,0.00
2013-9-20,69,59,53,-100,-100,-100,0,0,100,0.00,40.00,0,-999,0,0.00
2013-9-21,76,59,42,-100,-100,-100,0,0,100,0.00,40.00,0,-999,0,0.00
2013-9-22,67,63,61,-100,-100,-100,0,0,100,0.00,40.00,0,-999,0,0.00
2013-9-23,75,67,54,-100,-100,-100,0,0,100,0.00,40.00,0,-999,0,0.00
2013-9-24,66,63,57,-100,-100,-100,0,0,100,0.00,40.00,0,-999,0,0.00
2013-9-25,78,63,51,-100,-100,-100,0,0,100,0.00,40.00,0,-999,0,0.00
2013-9-26,85,72,61,-100,-100,-100,0,0,100,0.00,40.00,0,-999,0,0.00
2013-9-27,84,77,69,-100,-100,-100,0,0,100,0.00,40.00,0,-999,0,0.00
2013-9-28,73,63,52,-100,-100,-100,0,0,100,0.00,40.00,0,-999,0,0.00
2013-9-29,77,58,45,-100,-100,-100,0,0,100,0.00,40.00,0,-999,0,0.00
2013-9-30,80,63,51,-100,-100,-100,0,0,100,0.00,40.00,0,-999,0,0.00
2013-10-1,73,66,60,-100,-100,-100,0,0,100,0.00,40.00,0,-999,0,0.00
2013-10-2,84,67,54,-100,-100,-100,0,0,100,0.00,40.00,0,-999,0,0.00
2013-10-3,77,67,58,-100,-100,-100,0,0,100,0.00,40.00,0,-999,0,0.00
2013-10-4,78,68,61,-100,-100,-100,0,0,100,0.00,40.00,0,-999,0,0.00
2013-10-5,51,45,40,-100,-100,-100,0,0,100,0.00,40.00,0,-999,0,0.00
2013-10-6,51,44,40,-100,-100,-100,0,0,100,0.00,40.00,0,-999,0,0.00
2013-10-7,76,57,40,-100,-100,-100,0,0,100,0.00,40.00,0,-999,0,0.00
2013-10-8,68,57,50,-100,-100,-100,0,0,100,0.00,40.00,0,-999,0,0.00
2013-10-9,76,65,54,-100,-100,-100,0,0,100,0.00,40.00,0,-999,0,0.00
2013-10-10,78,67,55,-100,-100,-100,0,0,100,0.00,40.00,0,-999,0,0.00
2013-10-11,78,65,54,-100,-100,-100,0,0,100,0.00,40.00,0,-999,0,0.00
2013-10-12,62,53,46,-100,-100,-100,0,0,100,0.00,40.00,0,-999,0,0.00
2013-10-13,67,49,36,-100,-100,-100,0,0,100,0.00,40.00,0,-999,0,0.00
2013-10-14,58,52,48,-100,-100,-100,0,0,100,0.00,40.00,0,-999,0,0.00
2013-10-15,58,47,43,-100,-100,-100,0,0,100,0.00,40.00,0,-999,0,0.00
2013-10-16,55,46,42,-100,-100,-100,0,0,100,0.00,40.00,0,-999,0,0.00
2013-10-17,56,44,37,-100,-100,-100,0,0,100,0.00,40.00,0,-999,0,0.00
2013-10-18,52,43,38,-100,-100,-100,0,0,100,0.00,40.00,0,-999,0,0.00
2013-10-19,59,46,33,-100,-100,-100,0,0,100,0.00,40.00,0,-999,0,0.00
2013-10-20,60,50,41,-100,-100,-100,0,0,100,0.00,40.00,0,-999,0,0.00
2013-10-21,52,41,32,-100,-100,-100,0,0,100,0.00,40.00,0,-999,0,0.00
2013-10-22,44,41,37,-100,-100,-100,0,0,100,0.00,40.00,0,-999,0,0.00
2013-10-23,47,38,32,-100,-100,-100,0,0,100,0.00,40.00,0,-999,0,0.00
2013-10-24,47,37,32,-100,-100,-100,0,0,100,0.00,40.00,0,-999,0,0.00
2013-10-25,60,41,27,-100,-100,-100,0,0,100,0.00,40.00,0,-999,0,0.00
2013-10-26,47,43,33,-100,-100,-100,0,0,100,0.00,40.00,0,-999,0,0.00
2013-10-27,69,41,32,-100,-100,-100,0,0,100,0.00,40.00,0,-999,0,0.00
2013-10-28,50,43,38,-100,-100,-100,0,0,100,0.00,40.00,0,-999,0,0.00
2013-10-29,49,44,40,-100,-100,-100,0,0,100,0.00,40.00,0,-999,0,0.00
2013-10-30,51,44,41,-100,-100,-100,0,0,100,0.00,40.00,0,-999,0,0.00
2013-10-31,54,43,34,-100,-100,-100,0,0,100,0.00,40.00,0,-999,0,0.00
2013-11-1,57,44,39,-100,-100,-100,0,0,100,0.00,40.00,0,-999,0,0.00
2013-11-2,57,43,33,-100,-100,-100,0,0,100,0.00,40.00,0,-999,0,0.00
2013-11-3,55,49,40,-100,-100,-100,0,0,100,0.00,40.00,0,-999,0,0.00
2013-11-4,53,47,38,-100,-100,-100,0,0,100,0.00,40.00,0,-999,0,0.00
2013-11-5,40,36,30,-100,-100,-100,0,0,100,0.00,40.00,0,-999,0,0.00
2013-11-6,35,33,31,-100,-100,-100,0,0,100,0.00,40.00,0,-999,0,0.00
2013-11-7,43,36,30,-100,-100,-100,0,0,100,0.00,40.00,0,-999,0,0.00
2013-11-8,58,45,31,-100,-100,-100,0,0,100,0.00,40.00,0,-999,0,0.00
2013-11-9,58,45,35,-100,-100,-100,0,0,100,0.00,40.00,0,-999,0,0.00
2013-11-10,52,40,29,-100,-100,-100,0,0,100,0.00,40.00,0,-999,0,0.00
2013-11-11,43,32,18,-100,-100,-100,0,0,100,0.00,40.00,0,-999,0,0.00
2013-11-12,34,21,10,-100,-100,-100,0,0,100,0.00,40.00,0,-999,0,0.00
2013-11-13,44,31,23,-100,-100,-100,0,0,100,0.00,40.00,0,-999,0,0.00
2013-11-14,52,41,33,-100,-100,-100,0,0,100,0.00,40.00,0,-999,0,0.00
2013-11-15,54,40,29,-100,-100,-100,0,0,100,0.00,40.00,0,-999,0,0.00
2013-11-16,62,51,44,-100,-100,-100,0,0,100,0.00,40.00,0,-999,0,0.00
2013-11-17,51,44,34,-100,-100,-100,0,0,100,0.00,40.00,0,-999,0,0.00
2013-11-18,54,37,25,-100,-100,-100,0,0,100,0.00,40.00,0,-999,0,0.00
2013-11-19,55,43,35,-100,-100,-100,0,0,100,0.00,40.00,0,-999,0,0.00
2013-11-20,52,45,39,-100,-100,-100,0,0,100,0.00,40.00,0,-999,0,0.00
2013-11-21,32,26,18,-100,-100,-100,0,0,100,0.00,40.00,0,-999,0,0.00
2013-11-22,30,19,11,-100,-100,-100,0,0,100,0.00,40.00,0,-999,0,0.00
2013-11-23,22,17,14,-100,-100,-100,0,0,100,0.00,40.00,0,-999,0,0.00
2013-11-24,29,19,10,-100,-100,-100,0,0,100,0.00,40.00,0,-999,0,0.00
2013-11-25,43,30,22,-100,-100,-100,0,0,100,0.00,40.00,0,-999,0,0.00
2013-11-26,29,24,17,-100,-100,-100,0,0,100,0.00,40.00,0,-999,0,0.00
2013-11-27,29,20,10,-100,-100,-100,0,0,100,0.00,40.00,0,-999,0,0.00
2013-11-28,31,24,19,-100,-100,-100,0,0,100,0.00,40.00,0,-999,0,0.00
2013-11-29,43,26,14,-100,-100,-100,0,0,100,0.00,40.00,0,-999,0,0.00
2013-11-30,58,34,27,-100,-100,-100,0,0,100,0.00,40.00,0,-999,0,0.00
2013-12-1,46,34,23,-100,-100,-100,0,0,100,0.00,40.00,0,-999,0,0.00
2013-12-2,61,41,30,-100,-100,-100,0,0,100,0.00,40.00,0,-999,0,0.00
2013-12-3,44,35,32,-100,-100,-100,0,0,100,0.00,40.00,0,-999,0,0.00
2013-12-4,32,20,14,-100,-100,-100,0,0,100,0.00,40.00,0,-999,0,0.00
2013-12-5,14,9,5,-100,-100,-100,0,0,100,0.00,40.00,0,-999,0,0.00
2013-12-6,7,3,-3,-100,-100,-100,0,0,100,0.00,40.00,0,-999,0,0.00
2013-12-7,9,2,-6,-100,-100,-100,0,0,100,0.00,40.00,0,-999,0,0.00
2013-12-8,14,11,7,-100,-100,-100,0,0,100,0.00,40.00,0,-999,0,0.00
2013-12-9,12,5,-3,-100,-100,-100,0,0,100,0.00,40.00,0,-999,0,0.00
2013-12-10,25,21,13,-100,-100,-100,0,0,100,0.00,40.00,0,-999,0,0.00
2013-12-11,26,9,1,-100,-100,-100,0,0,100,0.00,40.00,0,-999,0,0.00
2013-12-12,31,18,7,-100,-100,-100,0,0,100,0.00,40.00,0,-999,0,0.00
2013-12-13,30,21,14,-100,-100,-100,0,0,100,0.00,40.00,0,-999,0,0.00
2013-12-14,20,16,10,-100,-100,-100,0,0,100,0.00,40.00,0,-999,0,0.00
2013-12-15,25,18,12,-100,-100,-100,0,0,100,0.00,40.00,0,-999,0,0.00
2013-12-16,46,25,10,-100,-100,-100,0,0,100,0.00,40.00,0,-999,0,0.00
2013-12-17,39,31,25,-100,-100,-100,0,0,100,0.00,40.00,0,-999,0,0.00
2013-12-18,51,36,26,-100,-100,-100,0,0,100,0.00,40.00,0,-999,0,0.00
2013-12-19,29,25,16,-100,-100,-100,0,0,100,0.00,40.00,0,-999,0,0.00
2013-12-20,15,12,9,-100,-100,-100,0,0,100,0.00,40.00,0,-999,0,0.00
2013-12-21,21,18,14,-100,-100,-100,0,0,100,0.00,40.00,0,-999,0,0.00
2013-12-22,19,14,7,-100,-100,-100,0,0,100,0.00,40.00,0,-999,0,0.00
2013-12-23,9,4,-1,-100,-100,-100,0,0,100,0.00,40.00,0,-999,0,0.00
2013-12-24,23,13,3,-100,-100,-100,0,0,100,0.00,40.00,0,-999,0,0.00
2013-12-25,39,26,18,-100,-100,-100,0,0,100,0.00,40.00,0,-999,0,0.00
2013-12-26,49,31,20,-100,-100,-100,0,0,100,0.00,40.00,0,-999,0,0.00
2013-12-27,61,36,19,-100,-100,-100,0,0,100,0.00,40.00,0,-999,0,0.00
2013-12-28,59,39,17,-100,-100,-100,0,0,100,0.00,40.00,0,-999,0,0.00
2013-12-29,12,6,1,-100,-100,-100,0,0,100,0.00,40.00,0,-999,0,0.00
2013-12-30,32,16,3,-100,-100,-100,0,0,100,0.00,40.00,0,-999,0,0.00
2013-12-31,29,14,4,-100,-100,-100,0,0,100,0.00,40.00,0,-999,0,0.00
2014-1-1,8,5,1,-100,-100,-100,0,0,100,0.00,40.00,0,-999,0,0.00
2014-1-2,5,2,-3,-100,-100,-100,0,0,100,0.00,40.00,0,-999,0,0.00